Location: Little Arabia
(41.4620°N, 81.7687°W)
Time: 20:20:43
(UTC+00:00)

CSL-04 Rocket - Pass Details

Date: 29 October 2020
Orbit: 805 x 861 km, 98.9° (Epoch: 03 December)

Event Time Altitude Azimuth Distance (km) Brightness Sun altitude
Exits shadow 23:39:11 - 135° (SE) 2,930 6.1 -14.4°
Reaches altitude 10° 23:40:25 10° 130° (SE) 2,490 5.7 -14.6°
Maximum altitude 23:45:22 35° 67° (ENE) 1,361 4.3 -15.5°
Drops below altitude 10° 23:50:17 10° 4° (N) 2,483 6.1 -16.5°
Sets 23:52:50 0° 355° (N) 3,415 6.9 -16.9°
